ホルト-オルムステッド彗星

127P/Holt-Olmstead (2016)

English version
Home page
Updated on January 17, 2017

---------------------------------------------------------------------

・ プロフィール

・ 写真集

・ 軌道要素

Epoch 2016 Apr. 2.0 TT = JDT 2457480.5
T 2016 Mar. 17.79632 TT                                 MPC
q   2.2059013            (2000.0)            P               Q
n   0.15379549     Peri.    6.70228     +0.93842897     -0.34051796
a   3.4501686      Node    13.64945     +0.30438990     +0.73516631
e   0.3606396      Incl.   14.30259     +0.16339478     +0.58615528
P   6.41
From 553 observations 1990 Sept. 16-2010 Feb. 14, mean residual 0".7.
     Nongravitational parameters A1 = +0.31, A2 = -0.0087.

・ 光度変化

        m1 = 15.0 + 5 logΔ + 10.0 log r

---------------------------------------------------------------------

軌道要素はM.P.E.C. 2013-O31に掲載されたものです。
光度グラフはComet for Windowsで作成したものです。

---------------------------------------------------------------------

Copyright(C) Seiichi Yoshida (comet@aerith.net). All rights reserved.